Home > Weather > Saint George's > Past weeks

Flag for Grenada Past Weather in Saint George's, Grenada — Yesterday and Last 2 Weeks

Now
86 °F

Scattered clouds.


Feels Like: 97 °F
Forecast: 77 / 82 °F
Wind: 14 mph from East

Location: Point Salines Airport

Current Time: Jul 29, 2016 at 12:12:21 PM

Latest Report: Jul 29, 2016 at 12:00 PM


Visibility: N/A

Pressure: 29.92 "Hg

Humidity: 75%

Dew Point: 77 °F

Location of Saint George'sLocation

Past Weather in Saint George's — Graph

°F

Saint George's Temperature Yesterday

Maximum temperature yesterday: 88 °F (at 11:00 AM)
Minimum temperature yesterday: 79 °F (at 1:00 AM)
Average temperature yesterday: 83 °F

High & Low Weather Summary for the Past Weeks

 TemperatureHumidityPressure
High88 °F (Jul 25, 11:00 AM)100% (Jul 15, 6:00 AM)30.01 "Hg (Jul 15, 6:00 AM)
Low75 °F (Jul 23, 6:00 AM)66% (Jul 17, 10:00 AM)29.86 "Hg (Jul 15, 2:00 AM)
Average82 °F84%29.93 "Hg
* Reported Jul 14 11:00 AM — Jul 29 11:00 AM, Saint George's, Weather by CustomWeather, © 2016

Note: Actual official high and low records may vary slightly from our data, if they occured in-between our weather recording intervals... More about our weather records

Advertising

Saint George's Weather History for the Previous 24 Hours

Scroll right to see more
 ConditionsComfort  
Time TempWeatherWind HumidityBarometerVisibility
11:00 AM
Fri, Jul 29
86 °FPassing clouds.17 mph79%29.95 "HgN/A
10:00 AM81 °FPassing clouds.14 mph94%29.95 "HgN/A
9:00 AM81 °FPassing clouds.12 mph94%29.95 "HgN/A
8:00 AM79 °FBroken clouds.12 mph94%29.95 "HgN/A
7:00 AM79 °FScattered clouds.8 mph100%29.92 "HgN/A
6:00 AM79 °FSprinkles. Scattered clouds.10 mph89%29.92 "HgN/A
5:00 AM79 °FPassing clouds.12 mph94%29.89 "HgN/A
4:00 AM79 °FPassing clouds.10 mph94%29.89 "HgN/A
3:00 AM79 °FPassing clouds.10 mph94%29.89 "HgN/A
2:00 AM81 °FPassing clouds.9 mph94%29.89 "HgN/A
1:00 AM79 °FPassing clouds.9 mph94%29.92 "HgN/A
12:00 AM79 °FPassing clouds.12 mph94%29.92 "HgN/A
11:00 PM
Thu, Jul 28
81 °FPassing clouds.10 mph89%29.95 "HgN/A
10:00 PM81 °FPassing clouds.12 mph89%29.95 "HgN/A
9:00 PM79 °FPassing clouds.12 mph94%29.92 "HgN/A
8:00 PM81 °FPassing clouds.12 mph94%29.89 "HgN/A
7:00 PM82 °FPassing clouds.12 mph89%29.89 "HgN/A
6:00 PM86 °FPassing clouds.12 mph75%29.89 "HgN/A
5:00 PM86 °FPassing clouds.17 mph75%29.86 "HgN/A
4:00 PM86 °FPassing clouds.20 mph75%29.86 "HgN/A
3:00 PM88 °FPassing clouds.18 mph70%29.89 "HgN/A
2:00 PM88 °FPassing clouds.12 mph70%29.89 "HgN/A
1:00 PM88 °FPassing clouds.18 mph70%29.92 "HgN/A
12:00 PM88 °FScattered clouds.18 mph70%29.95 "HgN/A
Weather by CustomWeather, © 2016

See weather overviewHow to use our weather pages